Middlebury State AP, Middlebu, VT

5:18 PM EST on November 13, 2019 (GMT -0500)
Middlebury State AP, Middlebu

Weather History for K6B0 - August, 2019

Change the Weather History Date:

Monday, August 19, 2019

  Actual Average (KRUT) Record (KRUT)
Temperature  
Mean Temperature 72 °F -  
Max Temperature 82 °F 79 °F 89 °F (1971)
Min Temperature 63 °F 54 °F 41 °F (1968)
Cooling Degree Days 8    
Growing Degree Days 22 (Base 50)    
Moisture  
Dew Point 66 °F    
Average Humidity 78    
Maximum Humidity 95    
Minimum Humidity 60    
Precipitation  
Precipitation 0.10 in - - ()
Sea Level Pressure  
Sea Level Pressure 29.95 in    
Wind  
Wind Speed 4 mph ()    
Max Wind Speed 14 mph    
Max Gust Speed 17 mph    
Visibility 9.9 miles    
Events Rain    
Averages and records for this station are not official NWS values.
T = Trace of Precipitation, MM = Missing Value Source: Averaged Metar Reports

Daily Weather History Graph

Daily Weather History Graph

Search for Another Location

Airport or City:

Astronomy

Aug. 19, 2019 Rise Set
Actual Time 6:00 AM EDT 7:50 PM EDT
Civil Twilight 5:29 AM EDT 8:21 PM EDT
Nautical Twilight 4:51 AM EDT 8:59 PM EDT
Astronomical Twilight 4:10 AM EDT 9:39 PM EDT
Moon 10:03 PM EDT (8/19) 9:45 AM EDT (8/19)
Length of Visible Light 14h 51m
Length of Day
13h 50m
Waning Gibbous, 85% of the Moon is Illuminated
Aug 19
Waning Gibbous
Aug 23
Last Quarter
Aug 30
New
Sep 5
First Quarter
Sep 14
Full

Hourly Weather History & Observations

Time (EDT) Temp. Heat Index Dew Point Humidity Pressure Visibility Wind Dir Wind Speed Gust Speed Precip Events Conditions
6:49 AM 66.4 °F - 64.8 °F 95% 29.94 in 10.0 mi South 3.5 mph - N/A   Clear
6:57 AM 66.9 °F - 64.9 °F 93% 29.95 in 10.0 mi South 3.5 mph - N/A   Clear
7:16 AM 68.4 °F - 65.5 °F 90% 29.97 in 10.0 mi South 3.5 mph - N/A   Mostly Cloudy
7:35 AM 68.9 °F - 64.9 °F 87% 29.98 in 10.0 mi South 4.6 mph - 0.01 in Rain Light Rain
7:36 AM 68.9 °F - 64.9 °F 87% 29.98 in 10.0 mi SSE 3.5 mph - 0.01 in Rain Light Rain
7:55 AM 68.4 °F - 65.5 °F 90% 29.97 in 10.0 mi Calm Calm - 0.01 in   Overcast
8:00 AM 69.3 °F - 65.8 °F 89% 29.97 in 10.0 mi SE 3.5 mph - N/A   Overcast
8:18 AM 68.5 °F - 65.1 °F 89% 29.97 in 2.5 mi SE 3.5 mph - 0.08 in Rain Heavy Rain
8:35 AM 68.0 °F - 64.8 °F 89% 29.96 in 10.0 mi SSE 5.8 mph - 0.08 in Rain Light Rain
8:55 AM 68.5 °F - 64.9 °F 88% 29.92 in 10.0 mi SSE 6.9 mph - 0.09 in Rain Light Rain
8:56 AM 68.5 °F - 64.9 °F 88% 29.92 in 10.0 mi SSE 6.9 mph - 0.09 in Rain Light Rain
9:15 AM 68.9 °F - 66.2 °F 91% 29.94 in 10.0 mi Calm Calm - N/A   Scattered Clouds
9:16 AM 68.9 °F - 66.2 °F 91% 29.94 in 10.0 mi SW 3.5 mph - N/A   Scattered Clouds
9:38 AM 71.8 °F - 67.6 °F 87% 29.95 in 10.0 mi South 4.6 mph - N/A   Clear
9:56 AM 72.9 °F - 67.1 °F 82% 29.95 in 10.0 mi South 8.1 mph - N/A   Clear
10:16 AM 73.2 °F - 66.4 °F 79% 29.96 in 10.0 mi SSW 10.4 mph - N/A   Clear
10:35 AM 74.1 °F - 66.7 °F 78% 29.96 in 10.0 mi South 10.4 mph - N/A   Scattered Clouds
10:36 AM 74.3 °F - 66.9 °F 78% 29.95 in 10.0 mi South 13.8 mph - N/A   Scattered Clouds
10:55 AM 75.2 °F - 67.1 °F 76% 29.95 in 10.0 mi South 5.8 mph - N/A   Mostly Cloudy
10:59 AM 75.4 °F - 67.3 °F 76% 29.96 in 10.0 mi South 8.1 mph - N/A   Mostly Cloudy
11:18 AM 75.4 °F - 66.9 °F 75% 29.94 in 10.0 mi South 9.2 mph - N/A   Overcast
11:36 AM 76.1 °F - 67.8 °F 75% 29.94 in 10.0 mi SSE 6.9 mph - N/A   Overcast
11:55 AM 76.3 °F - 67.3 °F 74% 29.93 in 10.0 mi South 6.9 mph - N/A   Overcast
11:56 AM 76.3 °F - 67.3 °F 74% 29.94 in 10.0 mi South 5.8 mph - N/A   Overcast
12:15 PM 76.6 °F - 67.1 °F 72% 29.94 in 10.0 mi South 9.2 mph - N/A   Scattered Clouds
12:39 PM 78.3 °F - 67.6 °F 70% 29.95 in 10.0 mi South 9.2 mph - N/A   Clear
12:56 PM 78.1 °F - 66.9 °F 68% 29.95 in 10.0 mi SSW 6.9 mph 17.3 mph N/A   Clear
1:15 PM 78.8 °F - 67.6 °F 68% 29.95 in 10.0 mi SSW 5.8 mph - N/A   Clear
1:16 PM 78.8 °F - 67.5 °F 68% 29.95 in 10.0 mi South 6.9 mph - N/A   Clear
1:35 PM 78.6 °F - 67.8 °F 69% 29.94 in 10.0 mi SSW 6.9 mph - N/A   Mostly Cloudy
1:36 PM 78.4 °F - 67.6 °F 69% 29.94 in 10.0 mi SSW 8.1 mph - N/A   Mostly Cloudy
1:55 PM 76.8 °F - 68.4 °F 75% 29.95 in 10.0 mi South 4.6 mph - N/A   Overcast
1:59 PM 76.6 °F - 68.7 °F 76% 29.95 in 10.0 mi SSE 3.5 mph - N/A   Overcast
2:18 PM 78.1 °F - 69.4 °F 75% 29.94 in 10.0 mi South 4.6 mph - N/A   Mostly Cloudy
2:35 PM 79.5 °F - 69.4 °F 71% 29.93 in 10.0 mi South 5.8 mph - N/A   Scattered Clouds
2:55 PM 80.6 °F 83.1 °F 67.5 °F 64% 29.93 in 10.0 mi SSW 8.1 mph - N/A   Clear
2:56 PM 80.6 °F 83.1 °F 67.3 °F 64% 29.93 in 10.0 mi SSW 8.1 mph - N/A   Clear
3:15 PM 79.9 °F - 68.5 °F 68% 29.92 in 10.0 mi SSE 4.6 mph - N/A   Mostly Cloudy
3:16 PM 79.7 °F - 68.4 °F 68% 29.92 in 10.0 mi SSE 4.6 mph - N/A   Mostly Cloudy
3:38 PM 82.4 °F 85.6 °F 68.5 °F 63% 29.91 in 10.0 mi SW 5.8 mph - N/A   Mostly Cloudy
3:56 PM 81.7 °F 84.5 °F 68.2 °F 63% 29.91 in 10.0 mi SW 6.9 mph - N/A   Mostly Cloudy
4:16 PM 81.9 °F 84.4 °F 67.3 °F 61% 29.90 in 10.0 mi SSW 5.8 mph - N/A   Scattered Clouds
4:35 PM 80.8 °F 83.5 °F 68.0 °F 65% 29.90 in 10.0 mi SSW 4.6 mph - N/A   Clear
4:36 PM 80.8 °F 83.5 °F 68.0 °F 65% 29.90 in 10.0 mi SW 4.6 mph - N/A   Clear
4:55 PM 81.7 °F 85.2 °F 69.6 °F 67% 29.89 in 10.0 mi SSW 9.2 mph - N/A   Clear
5:18 PM 81.3 °F 84.5 °F 69.1 °F 66% 29.89 in 10.0 mi South 8.1 mph - N/A   Scattered Clouds
5:36 PM 81.7 °F 84.0 °F 66.6 °F 60% 29.89 in 10.0 mi SSW 5.8 mph - N/A   Mostly Cloudy
5:55 PM 81.5 °F 83.7 °F 66.4 °F 60% 29.89 in 10.0 mi SSW 4.6 mph - N/A   Scattered Clouds
5:56 PM 81.5 °F 83.9 °F 66.9 °F 61% 29.89 in 10.0 mi SSW 4.6 mph - N/A   Scattered Clouds
6:15 PM 81.0 °F 83.4 °F 67.3 °F 63% 29.89 in 10.0 mi SSW 3.5 mph - N/A   Clear
6:16 PM 81.0 °F 83.4 °F 67.1 °F 63% 29.89 in 10.0 mi SW 4.6 mph - N/A   Clear
6:38 PM 78.3 °F - 67.6 °F 70% 29.90 in 10.0 mi Calm Calm - N/A   Clear
6:56 PM 77.4 °F - 68.7 °F 75% 29.91 in 10.0 mi Calm Calm - N/A   Scattered Clouds
7:16 PM 75.2 °F - 69.4 °F 82% 29.92 in 10.0 mi Calm Calm - N/A   Mostly Cloudy
7:35 PM 72.7 °F - 68.0 °F 85% 29.93 in 10.0 mi Calm Calm - N/A   Mostly Cloudy
7:36 PM 72.5 °F - 67.8 °F 85% 29.93 in 10.0 mi Calm Calm - N/A   Mostly Cloudy
7:55 PM 70.9 °F - 66.2 °F 85% 29.94 in 10.0 mi Calm Calm - N/A   Scattered Clouds
7:59 PM 70.3 °F - 66.4 °F 87% 29.94 in 10.0 mi Calm Calm - N/A   Clear
8:17 PM 69.1 °F - 64.8 °F 86% 29.96 in 10.0 mi Calm Calm - N/A   Clear
8:36 PM 68.4 °F - 64.0 °F 86% 29.97 in 10.0 mi Calm Calm - N/A   Mostly Cloudy
8:55 PM 68.9 °F - 63.9 °F 84% 29.98 in 10.0 mi SE 3.5 mph - N/A   Overcast
9:15 PM 69.1 °F - 63.5 °F 82% 29.99 in 10.0 mi Calm Calm - N/A   Mostly Cloudy
9:38 PM 67.6 °F - 62.4 °F 83% 29.99 in 10.0 mi Calm Calm - N/A   Clear
9:56 PM 67.3 °F - 61.5 °F 82% 30.00 in 10.0 mi Calm Calm - N/A   Clear
10:15 PM 66.2 °F - 61.5 °F 85% 30.00 in 10.0 mi Calm Calm - N/A   Clear
10:16 PM 66.2 °F - 61.7 °F 85% 30.00 in 10.0 mi Calm Calm - N/A   Clear
10:35 PM 65.3 °F - 61.2 °F 86% 30.00 in 10.0 mi ESE 3.5 mph - N/A   Clear
10:36 PM 65.3 °F - 61.0 °F 86% 30.00 in 10.0 mi ESE 3.5 mph - N/A   Clear
10:55 PM 64.6 °F - 60.4 °F 86% 30.00 in 10.0 mi ESE 3.5 mph - N/A   Clear
10:59 PM 63.9 °F - 60.4 °F 89% 30.00 in 10.0 mi Calm Calm - N/A   Clear
11:18 PM 64.2 °F - 60.6 °F 88% 30.00 in 10.0 mi Calm Calm - N/A   Clear
11:35 PM 63.9 °F - 60.4 °F 89% 30.01 in 10.0 mi Calm Calm - N/A   Clear
11:55 PM 63.3 °F - 60.1 °F 89% 30.01 in 10.0 mi Calm Calm - N/A   Clear
11:56 PM 63.3 °F - 60.1 °F 89% 30.01 in 10.0 mi Calm Calm - N/A   Clear